Change the Weather History Date:

Tuesday, August 12, 2014

  Actual Average Record
Temperature  
Mean Temperature 65 °F -  
Max Temperature 77 °F 78 °F 92 °F (1965)
Min Temperature 53 °F 53 °F 41 °F (2004)
Growing Degree Days 15 (Base 50)    
Moisture  
Dew Point 54 °F    
Average Humidity 68    
Maximum Humidity 93    
Minimum Humidity 44    
Precipitation  
Precipitation 0.00 in - - ()
Sea Level Pressure  
Sea Level Pressure 30.06 in    
Wind  
Wind Speed 6 mph (NW)    
Max Wind Speed 14 mph    
Max Gust Speed 18 mph    
Visibility 10 miles    
Events      
Averages and records for this station are not official NWS values.
T = Trace of Precipitation, MM = Missing Value Source: NWS Daily Summary

Daily Weather History Graph

Daily Weather History Graph

Search for Another Location

Airport or City:

Trip Planner

Search our weather history database for the weather conditions in past years. The results will help you decide how hot, cold, wet, or windy it might be!

Date:

Astronomy

Aug. 12, 2014 Rise Set
Actual Time 6:11 AM CDT 8:30 PM CDT
Civil Twilight 5:38 AM CDT 9:04 PM CDT
Nautical Twilight 4:56 AM CDT 9:45 PM CDT
Astronomical Twilight 4:09 AM CDT 10:32 PM CDT
Moon 9:25 PM CDT (8/12) 8:40 AM CDT (8/12)
Length of Visible Light 15h 26m
Length of Day
14h 19m
Waning Gibbous, 94% of the Moon is Illuminated
Aug 12
Waning Gibbous
Aug 17
Last Quarter
Aug 25
New
Sep 2
First Quarter
Sep 8
Full

Hourly Weather History & Observations

Time (CDT) Temp. Dew Point Humidity Pressure Visibility Wind Dir Wind Speed Gust Speed Precip Events Conditions
12:53 AM 57.0 °F 53.1 °F 87% 30.10 in 10.0 mi NNW 5.8 mph - N/A   Clear
1:53 AM 55.9 °F 53.1 °F 90% 30.10 in 10.0 mi NNW 5.8 mph - N/A   Clear
2:53 AM 55.0 °F 52.0 °F 89% 30.09 in 10.0 mi NNW 5.8 mph - N/A   Clear
4:53 AM 54.0 °F 52.0 °F 93% 30.09 in 10.0 mi NNW 3.5 mph - N/A   Clear
5:53 AM 53.1 °F 51.1 °F 93% 30.09 in 10.0 mi Calm Calm - N/A   Clear
6:53 AM 53.1 °F 51.1 °F 93% 30.11 in 10.0 mi Calm Calm - N/A   Clear
7:53 AM 59.0 °F 54.0 °F 83% 30.11 in 10.0 mi Calm Calm - N/A   Clear
8:53 AM 63.0 °F 55.0 °F 75% 30.11 in 10.0 mi NW 4.6 mph - N/A   Clear
9:53 AM 66.9 °F 53.1 °F 61% 30.10 in 10.0 mi WNW 9.2 mph - N/A   Clear
10:53 AM 70.0 °F 48.0 °F 46% 30.10 in 10.0 mi NNW 12.7 mph - N/A   Clear
12:53 PM 73.0 °F 51.1 °F 46% 30.08 in 10.0 mi North 13.8 mph - N/A   Clear
1:53 PM 73.9 °F 53.1 °F 48% 30.06 in 10.0 mi Variable 6.9 mph - N/A   Scattered Clouds
2:53 PM 75.0 °F 52.0 °F 44% 30.05 in 10.0 mi NNW 9.2 mph 18.4 mph N/A   Scattered Clouds
3:53 PM 77.0 °F 55.0 °F 47% 30.04 in 10.0 mi WNW 10.4 mph - N/A   Mostly Cloudy
4:53 PM 77.0 °F 54.0 °F 45% 30.02 in 10.0 mi WNW 10.4 mph - N/A   Mostly Cloudy
5:53 PM 77.0 °F 55.0 °F 47% 30.02 in 10.0 mi WNW 10.4 mph - N/A   Mostly Cloudy
6:53 PM 75.0 °F 55.0 °F 50% 30.01 in 10.0 mi WNW 8.1 mph - N/A   Partly Cloudy
7:53 PM 73.0 °F 55.9 °F 55% 30.00 in 10.0 mi West 5.8 mph - N/A   Clear
8:53 PM 69.1 °F 57.0 °F 65% 30.01 in 10.0 mi West 6.9 mph - N/A   Clear
9:53 PM 66.9 °F 57.9 °F 73% 30.02 in 10.0 mi West 6.9 mph - N/A   Clear
10:53 PM 64.9 °F 57.0 °F 75% 30.02 in 10.0 mi WSW 6.9 mph - N/A   Clear
11:53 PM 64.0 °F 57.9 °F 80% 30.02 in 10.0 mi WSW 6.9 mph - N/A   Clear